Regional Weather Roundup
Issued by NWS

Home | Current Version | Previous Version | Graphics & Text | Print | Product List | Glossary On
Versions: 1 2 3 4 5 6 7 8 9 10 11 12 13 14 15 16 17 18 19 20 21 22 23 24 25 26 27 28 29 30 31 32 33 34 35 36 37 38 39 40 41 42 43 44 45 46 47 48 49 50
000
ASUS43 KBIS 302220
RWRND

NORTH DAKOTA REGIONAL WEATHER ROUNDUP
NATIONAL WEATHER SERVICE BISMARCK ND
500 PM CDT THU OCT 30 2014

NOTE: "FAIR" INDICATES FEW OR NO CLOUDS BELOW 12,000 FEET WITH NO
SIGNIFICANT WEATHER AND/OR OBSTRUCTIONS TO VISIBILITY.


NDZ001>003-009>011-017-302300-
NORTHWEST NORTH DAKOTA

CITY           SKY/WX    TMP DP  RH WIND       PRES   REMARKS
WILLISTON      CLOUDY    38  31  76 E8        30.47R
MINOT          PTSUNNY   31  21  66 N8G18     30.49R
MINOT AFB      MOSUNNY   32  22  65 N8        30.49R
$$

NDZ018>021-031>035-040>046-302300-
SOUTHWEST NORTH DAKOTA

CITY           SKY/WX    TMP DP  RH WIND       PRES   REMARKS
BISMARCK       CLOUDY    36  30  79 N9        30.47R
DICKINSON      CLOUDY    36  30  79 NE12      30.42R
GARRISON         N/A     33  25  72 NE9       30.47R
HETTINGER ARPT CLOUDY    37  29  72 N10       30.43R
$$

NDZ004>008-012>016-024-026-027-054-302300-
NORTHEAST NORTH DAKOTA

CITY           SKY/WX    TMP DP  RH WIND       PRES   REMARKS
GRAND FORKS    PTSUNNY   38  17  42 N22G32    30.41R
GRND FRKS AFB  PTSUNNY   37  17  45 N21G28    30.42R
DEVILS LAKE    SUNNY     36  14  41 N15G22    30.44R
$$

NDZ022-023-025-028>030-036>039-047>053-302300-
SOUTHEAST NORTH DAKOTA

CITY           SKY/WX    TMP DP  RH WIND       PRES   REMARKS
FARGO          CLOUDY    37  23  56 N24G33    30.39R
JAMESTOWN      PTSUNNY   33  22  63 N21G31    30.42R
$$




USA.gov is the U.S. government's official web portal to all federal, state and local government web resources and services.